DELTA 1 DEB, 1529

Orbit data source: Space-Track

DELTA 1 DEB, 1529 is space debris in SSO originally from a launch on Fri, 02 Jul 1965 UTC launched from the Air Force Eastern Test Range (AFETR). Debris objects in space refer to the collection of defunct objects orbiting the Earth. Examples of debris include non-operational satellites, rocket bodies, and fragments generated from explosions, collisions, or faulty payload assembly.

Loading next visibility...
Identifier
1529, 1965-051D
Orbit
SSO
Country
Flag of USUS
Related business
Manufacturer
Unknown
Mission
Spacecraft
Bus & Motor
Unknown
Mass
1 kg wet, 1 kg dry
Launch date (UTC)
1965-07-02 (61 years ago)
Launch vehicle
Unknown
Launch site
Air Force Eastern Test Range (AFETR)
Object type
Payload
Rocket body
Debris
Shape & HBR
Unknown
Radar Cross Section
Small (<0.1 m²)

Expand to show TLE details & history
Last TLE update: 9 hours ago

TLE from 9 hours ago
0 DELTA 1 DEB
1  1529U 65051D   26035.62109754  .00000250  00000-0  12811-3 0  9997
2  1529  99.0042 272.1667 0035175 245.3046 114.4468 14.24207501136575
Epoch: 2026-02-04T14:54Z
TLE epoch observation values (Epoch: 2026-02-04T14:54:22.827Z)
Latitude
-0.00004°
Longitude
-86.21346°
Altitude
824.61 km
Speed
7.435 km/s
True Right ascension
18h 08m 40s
True Declination
0° 00' 00"
Sunlit
Object was in daylight at epoch
Visualization orbit readout
Latitude
Unknown
Longitude
Unknown
Altitude
Unknown
Speed
Unknown
Apparent Right ascension
Unknown
Apparent Declination
Unknown
Sunlit
N/A
Visualization observer readout
Local Sidereal Time
01:58:47
Azimuth
Unknown
Elevation
Unknown
Doppler factor
Unknown
Orbital elements
Apogee altitude
833.604 km
Perigee altitude
783.047 km
Semi-major axis
7,186.463 km
Eccentricity
0.00352
Inclination
99.0042°
RAAN
272.1667°
Arg. of periapsis
245.3046°
True anomaly
114.81307°
Mean anomaly
114.4468°
Eccentric anomaly
114.63°
Mean motion
3.56263 °/min
Orbital period
101.05 mins
BSTAR
0.00012811
Loading maneuver chart data...
Computing Atmospheric mass density...
Loading historical data...
Loading historical data...
Loading historical data...
Loading historical data...
Loading historical data...
Loading historical data...
Loading historical data...
Other satellites on launch #51 in the year 1965 (1965-07-02 UTC)

Documentation

Showing up to 5 results
|